Flag Weather past 2 weeks in Manaus, Amazonas, Brazil

Now
91 °F

Passing clouds.


Feels Like: 97 °F
Forecast: N/A
Wind: 7 mph from Southeast

Location: Manaus Aeroporto

Current Time: Nov 26, 2014 at 4:49:26 PM

Latest Report: Nov 26, 2014 at 4:00 PM


Visibility: N/A

Pressure: 29.68 "Hg

Humidity: 49%

Dew point: 70 °F

Location of ManausLocation

Historic Weather in Manaus — Graph

°F

Manaus temperature yesterday

Maximum temperature yesterday: 91 °F (at 1:00 PM)
Minimum temperature yesterday: 77 °F (at 5:00 AM)
Average temperature yesterday: 84 °F

Past Weeks' High & Low Weather Summary

 TemperatureHumidityPressure
High91 °F (Nov 11, 3:00 PM)100% (Nov 18, 2:00 AM)30.07 "Hg (Nov 18, 2:00 AM)
Low73 °F (Nov 13, 11:00 AM)24% (Nov 15, 11:00 AM)29.65 "Hg (Nov 12, 4:00 PM)
Average80 °F79%29.82 "Hg
* Reported Nov 11 3:00 PM — Nov 26 3:00 PM, Manaus, Weather by CustomWeather, © 2014

Note: Actual official high and low records may vary slightly from our data, if they occured in-between our weather recording intervals... More about our weather records

Advertising

Manaus weather history for previous 24 hours

 ConditionsComfort  
Time TempWeatherWind HumidityBarometerVisibility
3:00 PM
Nov 26
90 °FPassing clouds.5 mph55%29.71 "HgN/A
2:00 PM91 °FScattered clouds.6 mph52%29.74 "HgN/A
1:00 PM90 °FScattered clouds.6 mph55%29.80 "HgN/A
12:00 PM90 °FScattered clouds.7 mph55%29.80 "HgN/A
11:00 AM88 °FScattered clouds.7 mph62%29.83 "HgN/A
10:00 AM90 °FPassing clouds.6 mph52%29.83 "HgN/A
9:00 AM86 °FPassing clouds.7 mph62%29.83 "HgN/A
8:00 AM84 °FScattered clouds.6 mph70%29.83 "HgN/A
7:00 AM82 °FSunny.3 mph79%29.83 "Hg10 mi
6:00 AM79 °FSunny.3 mph84%29.80 "Hg10 mi
5:00 AM81 °FClear.5 mph74%29.77 "Hg10 mi
4:00 AM81 °FClear.5 mph79%29.74 "Hg10 mi
3:00 AM81 °FClear.3 mph79%29.74 "Hg10 mi
2:00 AM81 °FClear.5 mph79%29.74 "Hg10 mi
1:00 AM81 °FClear.7 mph84%29.77 "Hg10 mi
12:00 AM81 °FPassing clouds.3 mph84%29.77 "HgN/A
11:00 PM
Nov 25
81 °FPassing clouds.3 mph79%29.80 "HgN/A
10:00 PM84 °FPassing clouds.3 mph74%29.80 "HgN/A
9:00 PM84 °FPassing clouds.2 mph74%29.77 "HgN/A
8:00 PM84 °FPassing clouds.2 mph70%29.74 "HgN/A
7:00 PM84 °FClear.3 mph70%29.71 "Hg10 mi
6:00 PM88 °FPassing clouds.6 mph59%29.71 "HgN/A
5:00 PM88 °FScattered clouds.7 mph59%29.71 "HgN/A
4:00 PM90 °FScattered clouds.5 mph55%29.71 "HgN/A
Weather by CustomWeather, © 2014

See weather overviewHow to use our weather pages